#timestamp,LO_Frequency,Hit,StdDev 
1669374015.6,286047012.8,N
1669374035.4,286047013.1,N
1669374055.3,286047013.3,N
1669374075.1,286047013.9,N
1669374095.8,286047013.1,N
1669374115.7,286047014.7,N
1669374135.5,286047013.2,N
1669374155.4,286047012.6,N
1669374175.2,286047014.7,N
1669374195.0,286047015.6,N
1669374195.9,286047015.6,N
1669374215.8,286047013.6,N
1669374235.6,286047011.1,N
1669374255.5,286047015.2,Y
1669374275.3,286047003.9,P
1669374295.1,286047004.4,N
1669374315.9,286047001.8,N
1669374335.7,286047001.8,N
1669374355.5,286047004.1,N
1669374375.4,286046999.9,N
1669374395.2,286046999.8,N
1669374415.1,286047004.1,N
1669374416.0,286047004.1,N
1669374435.8,286047004.4,N
1669374455.6,286047002.2,N
1669374475.5,286047002.7,N
1669374495.3,286047002.6,N
1669374515.2,286047003.5,N
1669374535.9,286047004.1,N
1669374555.7,286047001.8,N
1669374575.6,286047003.8,N
1669374595.4,286047001.7,N
1669374615.2,286047004.1,N
1669374635.1,286047004.2,N
1669374636.0,286047004.2,N
1669374655.8,286047003.0,N
1669374675.7,286047004.0,N
1669374695.5,286047002.0,N
1669374715.3,286047001.6,N
1669374735.2,286047003.1,N
1669374755.9,286047004.0,N
1669374775.7,286047000.2,N
1669374795.6,286047000.4,N
1669374815.4,286046998.5,N
1669374835.2,286047000.7,N
1669374855.1,286047000.4,N
1669374856.0,286047000.4,N
1669374875.8,286047002.2,N
1669374895.7,286047001.6,N
1669374915.5,286047002.4,N
1669374935.3,286047002.2,N
1669374955.2,286047002.5,N
1669374975.0,286047002.1,N
1669374975.9,286047002.1,N
1669374995.7,286046999.8,N
1669375015.6,286046999.7,N
1669375035.4,286047000.4,N
1669375055.3,286047000.4,N
1669375075.1,286047002.5,N
1669375076.0,286047002.5,N
1669375095.8,286047000.7,N
1669375115.7,286047000.6,N
1669375135.5,286047001.6,N
1669375155.3,286047001.6,N
1669375175.2,286047000.4,N
1669375195.0,286047001.9,N
1669375195.9,286047001.9,N
1669375215.8,286047003.7,Y
1669375235.6,286047000.8,P
1669375255.4,286046999.4,N
1669375275.3,286047001.0,N
1669375295.1,286047000.2,N
1669375315.8,286047001.2,N
1669375335.7,286047000.9,N
1669375355.5,286047000.2,N
1669375375.4,286047000.5,N
1669375395.2,286046999.7,N
1669375415.0,286047000.7,N
1669375415.9,286047000.7,N
1669375435.8,286047000.8,N
1669375455.6,286047000.5,N
1669375475.4,286047000.4,N
1669375495.3,286047000.2,N
1669375515.1,286047000.6,N
1669375535.9,286047000.1,N
1669375555.7,286046998.4,Y
1669375575.5,286046998.4,P
1669375595.4,286046998.3,N
1669375615.2,286047000.5,N
1669375635.0,286046999.3,N
1669375635.9,286046999.3,N
1669375655.8,286046999.1,N
1669375675.6,286047001.1,N
1669375695.5,286047000.2,N
1669375715.3,286046999.9,N
1669375735.1,286046998.7,N
1669375755.9,286046998.3,N
1669375775.7,286046999.9,N
1669375795.5,286047001.1,N
1669375815.4,286046996.5,Y
1669375835.2,286046998.1,P
1669375855.1,286047000.9,N
1669375856.0,286047000.9,N
1669375875.8,286047002.7,N
1669375895.6,286047001.2,N
1669375915.5,286046998.1,N
1669375935.3,286046999.2,N
1669375955.1,286046998.7,N
1669375975.9,286046999.5,N
1669375995.7,286046999.2,N
1669376015.6,286046998.5,N
1669376035.4,286047000.5,N
1669376055.2,286046996.5,N
1669376075.1,286046996.5,N
1669376076.0,286046996.5,N
1669376095.8,286046999.5,N
1669376115.6,286046999.1,N
1669376135.5,286046998.6,N
1669376155.3,286047000.1,N
1669376175.2,286047000.7,N
1669376195.9,286047002.8,N
1669376215.7,286046998.5,N
1669376235.6,286046998.4,N
1669376255.4,286047001.1,N
1669376275.2,286047000.5,N
1669376295.1,286046998.1,N
1669376296.0,286046998.1,N
1669376315.8,286046998.9,N
1669376335.6,286047000.4,N
1669376355.5,286046999.7,N
1669376375.3,286046999.4,N
1669376395.2,286046999.4,N
1669376415.9,286047000.4,N
1669376435.7,286047000.7,N
1669376455.6,286046998.9,N
1669376475.4,286046999.2,N
1669376495.2,286046996.9,N
1669376515.1,286046998.3,N
1669376516.0,286046998.3,N
1669376535.8,286047000.7,N
1669376555.7,286046999.7,N
1669376575.5,286047000.3,N
1669376595.3,286046999.0,N
1669376615.2,286046999.3,N
1669376635.0,286046999.2,N
1669376635.9,286046999.2,N
1669376655.7,286047000.3,N
1669376675.6,286047000.9,N
1669376695.4,286047001.1,N
1669376715.3,286046998.6,N
1669376735.1,286047000.5,N
1669376736.0,286047000.5,N
1669376755.8,286047000.9,N
1669376775.7,286047001.6,N
1669376795.5,286047002.3,N
1669376815.3,286046999.8,N
1669376835.2,286047000.5,N
1669376855.0,286046999.4,N
1669376855.9,286046999.4,N
1669376905.8,286047000.4,E
1669376915.7,286047002.3,N
1669376935.5,286047000.2,P
1669376955.4,286047002.8,N
1669376975.2,286047000.3,N
1669376995.1,286047001.5,N
1669376996.0,286047001.5,N
1669377015.8,286046999.8,N
1669377035.6,286047000.6,N
1669377055.5,286047002.8,N
1669377075.3,286047002.7,N
1669377095.1,286047000.3,N
1669377115.9,286047000.6,N
1669377135.7,286047000.4,N
1669377155.5,286047000.4,N
1669377175.4,286046999.1,N
1669377195.2,286046998.2,N
1669377215.1,286047000.7,N
1669377216.0,286047000.7,N
1669377235.8,286046998.7,N
1669377255.6,286046996.7,N
1669377275.5,286046999.3,N
1669377295.3,286046998.4,N
1669377315.1,286046998.5,N
1669377335.9,286046998.9,N
1669377355.7,286046998.5,N
1669377375.6,286047000.3,N
1669377395.4,286047002.4,N
1669377415.2,286047002.2,N
1669377435.1,286047002.4,N
1669377436.0,286047002.4,N
1669377455.8,286047000.1,N
1669377475.6,286047002.8,N
1669377495.5,286046999.0,N
1669377515.3,286047000.2,N
1669377535.2,286047000.0,N
1669377555.9,286047000.7,N
1669377575.7,286047001.0,N
1669377595.6,286046998.7,N
